Regional Weather Roundup
Issued by NWS

Home | Current Version | Previous Version | Graphics & Text | Print | Product List | Glossary Off
Versions: 1 2 3 4 5 6 7 8 9 10 11 12 13 14 15 16 17 18 19 20 21 22 23 24 25 26 27 28 29 30 31 32 33 34 35 36 37 38 39 40 41 42 43 44 45 46 47 48 49 50

000
ASUS43 KMKX 011200
RWRWI

WISCONSIN REGIONAL WEATHER ROUNDUP
NATIONAL WEATHER SERVICE MILWAUKEE/SULLIVAN WI
700 AM CDT WED OCT 01 2014

NOTE: "FAIR" INDICATES FEW OR NO CLOUDS BELOW 12,000 FEET WITH NO
SIGNIFICANT WEATHER AND/OR OBSTRUCTIONS TO VISIBILITY.

WIZ001-002-006>008-014>016-023>028-011300-
NORTHWEST WISCONSIN

CITY           SKY/WX    TMP DP  RH WIND       PRES   REMARKS
SUPERIOR ARPT  CLOUDY    47  44  88 E5        29.87F
ASHLAND        MOCLDY    44  42  93 CALM      29.92S
6HR MIN TEMP:  38; 6HR MAX TEMP:  44;

HAYWARD        CLOUDY    47  43  86 SE12      29.90F
6HR MIN TEMP:  46; 6HR MAX TEMP:  47;

SIREN          LGT RAIN  47  45  91 S7        29.88R
CUMBERLAND     CLOUDY    45  43  93 SE12      29.89S
RICE LAKE      CLOUDY    48  43  84 SE14      29.92S
6HR MIN TEMP:  46; 6HR MAX TEMP:  48;

CHETEK         CLOUDY    47  44  89 E8        29.92S
LADYSMITH      CLOUDY    47  44  89 SE9G17    29.96F
EAU CLAIRE     LGT RAIN  48  44  86 SE10      29.93R
6HR MIN TEMP:  47; 6HR MAX TEMP:  48; 6HR PCP: TRACE;

MENOMONIE      CLOUDY    48  44  88 SE12      29.92R
NEW RICHMOND   CLOUDY    47  45  93 SE7       29.87S
OSCEOLA        CLOUDY    48  48  97 SE8       29.90R
$$

WIZ003>005-009-010-017-018-011300-
NORTH CENTRAL WISCONSIN

CITY           SKY/WX    TMP DP  RH WIND       PRES   REMARKS
MANITOWISH WTR CLOUDY    43  43 100 SE12      29.96F
ARBOR VITAE    CLOUDY    44  42  93 S10G18    29.97F
WOODRUFF       CLOUDY    44  42  93 S10G18    29.97F
RHINELANDER    CLOUDY    43  42  97 S6        29.99F
6HR MIN TEMP:  43; 6HR MAX TEMP:  44;

EAGLE RIVER    CLOUDY    44  44  99 S6        29.99R FOG
LAND O LAKES   CLOUDY    45  44  97 S7        29.99S
PHILLIPS       CLOUDY    44  42  94 SE8G17    29.95F
6HR MIN TEMP:  43; 6HR MAX TEMP:  44;

TOMAHAWK       CLOUDY    43  42  96 SE3       29.98F FOG
MEDFORD        CLOUDY    44  43  97 SE8       29.95F FOG
MERRILL        CLOUDY    45  45 100 SE6       29.98F FOG
$$

WIZ029-030-035-036-043>047-011300-
CENTRAL WISCONSIN

CITY           SKY/WX    TMP DP  RH WIND       PRES   REMARKS
WAUSAU         CLOUDY    46  45  96 SE8       29.98F
6HR MIN TEMP:  44; 6HR MAX TEMP:  46;

MOSINEE        CLOUDY    46  46 100 SE6       29.99F
MARSHFIELD     CLOUDY    47  45  93 SE8       29.97F
6HR MIN TEMP:  46; 6HR MAX TEMP:  47;

STEVENS POINT  CLOUDY    45  45  98 SE3       30.00F
WAUPACA        CLOUDY    50  49  95 E3        30.01S FOG
WAUTOMA        NOT AVBL
WISC RAPIDS    CLOUDY    48  46  93 E6        29.99F
6HR MIN TEMP:  46; 6HR MAX TEMP:  48;

CAMP DOUGLAS   CLOUDY    48  48 100 SE7       29.97R
$$

WIZ011>013-019>022-031-037>040-048>050-011300-
NORTHEAST WISCONSIN

CITY           SKY/WX    TMP DP  RH WIND       PRES   REMARKS
ANTIGO         CLOUDY    44  44 100 S5        30.01S FOG
SHAWANO        CLOUDY    49  48  94 CALM      30.03S FOG
6HR MIN TEMP:  48; 6HR MAX TEMP:  49; 6HR PCP:  0.01;

OCONTO         CLOUDY    50  50 100 CALM      30.03R
STURGEON BAY   NOT AVBL
GREEN BAY      CLOUDY    50  50 100 CALM      30.02S
6HR MIN TEMP:  48; 6HR MAX TEMP:  50; 6HR PCP:  0.01;

MANITOWOC      NOT AVBL
APPLETON       CLOUDY    48  48 100 CALM      30.02S FOG
CLINTONVILLE   CLOUDY    46  46 100 CALM      30.02S FOG
OSHKOSH        CLOUDY    51  49  92 NE3       30.00F
6HR MIN TEMP:  48; 6HR MAX TEMP:  51;

$$

WIZ032>034-041-042-053>061-011300-
SOUTHWEST WISCONSIN

CITY           SKY/WX    TMP DP  RH WIND       PRES   REMARKS
LA CROSSE      CLOUDY    51  45  79 SE8       29.93F
6HR MIN TEMP:  49; 6HR MAX TEMP:  51;

SPARTA         CLOUDY    48  45  87 E5        29.95S
VIROQUA        CLOUDY    48  48 100 SE8       29.94S
BOSCOBEL       MOCLDY    52  46  80 E5        29.96S
6HR MIN TEMP:  46; 6HR MAX TEMP:  52;

PRAIRIE DU CHI CLOUDY    51  46  82 E6        29.93F
PLATTEVILLE    MOCLDY    49  47  93 E8        29.96R
$$

WIZ056-057-062-063-064-067-068-011300-
SOUTH CENTRAL WISCONSIN

CITY           SKY/WX    TMP DP  RH WIND       PRES   REMARKS
REEDSBURG      CLOUDY    49  46  90 SE5       29.97S
BARABOO/DELLS  CLOUDY    49  45  87 SE3       29.98R
LONE ROCK      PTCLDY    54  46  74 E5        29.97S
MINERAL POINT  CLEAR     50  46  87 SE9       29.96R
MADISON        CLOUDY    50  47  89 SE6       29.98F
6HR MIN TEMP:  49; 6HR MAX TEMP:  50;

MIDDLETON      CLOUDY    52  49  90 SE7       29.99S
WATERTOWN      CLOUDY    50  49  97 CALM      29.99F
MONROE         CLEAR     46  46 100 SE6       29.97S
JANESVILLE     NOT AVBL
$$

WIZ051-052-058>065-066-070>072-011300-
SOUTHEAST WISCONSIN

CITY           SKY/WX    TMP DP  RH WIND       PRES   REMARKS
MILWAUKEE      CLOUDY    55  48  77 S7        30.01R
6HR MIN TEMP:  52; 6HR MAX TEMP:  56;

WAUKESHA       CLOUDY    52  48  87 SE7       30.01S
MILWAUKEE/TIMM CLOUDY    52  48  87 CALM      30.01S
RACINE         CLOUDY    57  47  69 SE10      30.02S
6HR MIN TEMP:  56; 6HR MAX TEMP:  57;

BURLINGTON     CLOUDY    51  47  83 S5        30.00S
KENOSHA        CLOUDY    56  48  74 SE8       30.01S
6HR MIN TEMP:  52; 6HR MAX TEMP:  56;

FOND DU LAC    CLOUDY    51  48  89 E3        30.00F
6HR MIN TEMP:  48; 6HR MAX TEMP:  51; 6HR PCP:  0.01;

SHEBOYGAN      NOT AVBL
WEST BEND      CLOUDY    52  46  82 CALM      30.00S
JUNEAU         CLOUDY    51  48  90 SE6       30.01S
$$

LSZ147-162-011300-
LAKE SUPERIOR

STATION/POSITION TIME  TEMP    WIND        PRES    WAVE
                       AIR SEA DIR/SP/G            HT/PER
                 (UTC) (F)     (DEG/KT/KT) (MB)    (FT/S)
W MID LAKE BUOY  1050   49 50  180/ 16/ 17 1013.8F   2/ 4
DEVILS ISLAND    1100   49     170/  6/  8 1013.8S
SAXON HARBOR     1100   43        CALM     1013.2F
$$

LMZ867-665-643>646-011300-
LAKE MICHIGAN

STATION/POSITION TIME  TEMP    WIND        PRES    WAVE
                       AIR SEA DIR/SP/G            HT/PER
                 (UTC) (F)     (DEG/KT/KT) (MB)    (FT/S)
CHAMBERS ISLAND  1100   53     140/  3/  7 1016.9S
S GREEN BAY BUOY 1000   52                 1017.4F
N MID LAKE BUOY  1050   54 58  180/ 10/ 12 1017.2S   1/ 3
NORTHPORT PIER   1100   53     160/  4/  8 1016.9S
KEWAUNEE LAKESHO 1100   53     140/  8/ 10 1015.6F
SHEBOYGAN LAKESH 1100   56 54  130/ 15/ 17 1016.5F
PORT WASHINGTON  1100   58     160/  9/ 11 1016.6
ATWATER BUOY     1100   58     150/ 12/ 16 1016.9R
MILWAUKEE LAKESH 1100   58     140/ 14/ 16   N/A
S MID LAKE BUOY  1050   57 62  160/ 10/ 12 1016.4F   2/ 5
KENOSHA   LAKESH 1100   57     160/ 12/ 19 1015.9R
$$

TC  - TEMPERATURE IN CELSIUS
VSB - VISIBILITY IN STATUTE MILES
WCI - WIND CHILL INDEX
HX  - HEAT INDEX




USA.gov is the U.S. government's official web portal to all federal, state and local government web resources and services.